Location: La Brionne
(46.1728°N, 1.7849°E)
Time: 02:27:15
(UTC+00:00)

Cosmos 1844 Rocket - Visible Passes

Search period start: 23 October 2021 00:00
Search period end: 02 November 2021 00:00
Orbit: 826 x 843 km, 71.0° (Epoch: 22 October)

Date Brightness Start Highest point End Pass type
(mag) Time Alt. Az. Time Alt. Az. Time Alt. Az.
23 Oct 3.6 17:40:13 10° N 17:44:56 27° NE 17:49:18 11° ESE visible
23 Oct 3.2 19:23:43 10° NW 19:29:11 56° WSW 19:31:01 38° SSW visible
24 Oct 3.7 17:23:02 10° N 17:27:38 25° NE 17:32:12 10° ESE visible
24 Oct 3.0 19:06:27 10° NNW 19:11:57 62° WSW 19:15:10 25° S visible
25 Oct 2.9 18:49:12 10° NNW 18:54:44 67° WSW 18:59:39 13° SSE visible
26 Oct 2.8 18:31:56 10° NNW 18:37:31 74° WSW 18:43:03 10° SSE visible
26 Oct 5.6 20:19:23 10° W 20:20:21 10° W 20:21:19 10° WSW visible
27 Oct 2.7 18:14:41 10° NNW 18:20:17 80° WSW 18:25:50 10° SSE visible
27 Oct 5.5 20:01:18 10° WNW 20:03:12 12° W 20:05:06 10° WSW visible
28 Oct 2.7 17:57:26 10° NNW 18:03:03 87° WSW 18:08:37 10° SSE visible
28 Oct 5.5 19:43:34 10° WNW 19:46:02 13° W 19:48:30 10° WSW visible
29 Oct 2.6 17:40:12 10° NNW 17:45:48 87° ENE 17:51:23 10° SSE visible
29 Oct 5.5 19:25:58 10° WNW 19:28:52 15° W 19:31:48 10° SW visible
30 Oct 2.6 17:22:57 10° NNW 17:28:34 80° ENE 17:34:08 10° SSE visible
30 Oct 5.5 19:08:26 10° WNW 19:11:43 16° W 19:14:59 10° SW visible
31 Oct 2.6 17:05:43 10° NNW 17:11:19 74° ENE 17:16:53 10° SSE visible
31 Oct 5.4 18:50:57 10° WNW 18:54:32 18° W 18:58:07 10° SW visible
01 Nov 5.4 18:33:31 10° NW 18:37:22 19° W 18:41:13 10° SW visible
